Theta_e
302 301 301 301 301 301 302 305 308 309 307 303 304 305 303 301 303 300 300 299 299 297
302 302 301 302 301 300 299 303 301 306 308 305 304 303 308 307 304 303 303 301 302 303
303 303 302 301 300 299 299 299 302 302 307 302 301 301 300 300 302 301 304 303 303 303
303 303 303 300 300 301 298 299 301 303 301 300 298 298 298 300 302 300 301 301 300 298
302 300 301 301 302 304 299 299 300 302 299 298 297 296 298 300 303 301 299 299 297 297
302 301 301 301 300 303 301 299 299 300 298 297 297 295 295 297 298 300 298 297 297 297
302 300 300 301 303 302 303 300 300 299 298 297 295 295 295 296 296 297 300 299 299 297
302 301 301 301 305 302 305 300 300 299 297 295 295 295 293 294 294 295 297 299 300 299
303 306 303 300 301 301 302 300 299 299 300 295 297 299 301 299 293 293 296 297 298 298
304 305 301 301 302 301 301 300 299 298 298 298 296 298 299 301 294 293 295 296 294 296
304 303 300 301 300 299 300 299 298 297 298 298 300 300 299 300 295 293 294 296 294 295
305 300 300 299 298 298 298 298 298 299 298 297 298 300 300 299 296 295 294 295 297 297
301 300 299 298 299 299 299 300 301 300 300 302 300 300 299 299 299 296 295 294 295 300
300 299 299 298 298 298 299 299 298 300 301 301 302 304 300 298 300 297 295 294 294 296
Wind_Speed
4 2 1 1 1 3 3 3 5 2 2 5 6 5 4 2 2 3 5 7 6 3
3 3 1 3 0 1 2 2 4 5 5 6 7 7 5 3 4 5 5 5 6 4
4 3 1 2 1 1 2 3 5 6 5 6 7 7 7 6 5 6 3 3 5 5
5 5 3 4 3 3 1 2 6 4 5 6 6 6 6 6 6 6 6 4 5 4
5 5 4 4 4 6 4 1 5 5 5 5 5 5 6 5 5 5 4 3 2 2
4 4 5 5 3 3 5 2 5 5 5 4 3 5 4 4 5 4 3 2 3 3
5 7 5 3 3 4 4 4 5 5 4 4 2 2 3 5 5 5 4 4 5 5
7 4 4 3 2 3 5 4 4 6 3 2 2 1 2 4 5 6 7 6 6 7
6 3 6 3 1 3 4 4 3 4 4 4 4 3 3 2 4 6 6 6 7 6
4 3 6 4 4 2 3 3 2 2 1 5 6 8 7 6 4 5 6 6 6 7
5 5 4 5 4 2 3 3 4 5 5 4 6 10 10 11 5 5 7 6 6 6
6 5 6 6 5 3 2 3 4 5 6 6 8 11 15 9 6 6 7 6 6 6
6 7 7 6 5 3 3 5 4 6 7 9 9 11 15 10 4 7 6 7 5 6
7 7 7 5 3 4 5 5 5 6 7 7 8 11 12 9 6 6 4 4 5 4
Wind_Direction
139 155 264 320 354 305 291 310 339 57 88 77 45 19 18 22 63 55 39 30 51 57
199 202 215 307 99 241 331 358 19 28 38 33 47 25 5 5 2 31 50 61 52 43
213 239 225 190 142 41 349 30 24 21 75 60 45 30 31 12 10 61 37 70 69 53
234 252 204 203 205 207 253 53 54 70 64 60 50 28 40 20 36 37 45 39 83 81
225 200 198 236 211 202 195 161 84 112 86 70 62 48 46 32 20 35 24 46 79 68
204 217 219 232 221 173 168 184 81 125 104 90 71 56 37 44 30 354 322 264 203 217
210 209 212 259 234 161 172 183 114 153 155 144 103 64 28 21 359 329 320 290 245 227
203 196 203 187 170 239 144 158 131 151 201 213 186 125 14 352 329 323 314 310 285 233
186 183 200 206 150 90 89 160 161 151 196 238 273 244 276 285 315 310 302 302 306 273
175 191 197 159 147 142 145 170 211 252 216 234 250 263 266 273 277 293 301 292 301 296
187 186 173 146 162 172 151 195 230 253 255 261 262 255 261 262 265 277 284 286 281 291
193 149 150 154 190 205 193 245 250 252 262 254 260 248 250 253 266 276 277 281 296 308
153 143 165 184 199 222 213 240 257 270 248 251 262 262 254 238 249 270 274 294 301 313
148 170 184 192 214 230 245 272 276 276 279 256 251 275 278 240 236 245 285 308 307 297